Regional Weather Roundup
Issued by NWS Goodland, KS

Home | Current Version | Previous Version | Graphics & Text | Print | Product List | Glossary On
Versions: 1 2 3 4 5 6 7 8 9 10 11 12 13 14 15 16 17 18 19 20 21 22 23 24 25 26 27 28 29 30 31 32 33 34 35 36 37 38 39 40 41 42 43 44 45 46 47 48 49 50
000
ASUS43 KGLD 271659
RWRGLD

GOODLAND FORECAST AREA HOURLY WEATHER ROUNDUP
NATIONAL WEATHER SERVICE GOODLAND KS
1100 AM MDT FRI MAR 27 2015

...OFFICIAL OBSERVATIONS...

CITY           SKY/WX    TMP DP  RH WIND       PRES   REMARKS
GOODLAND KS    PTSUNNY   48  30  49 SW16G22   30.16F
HILL CITY KS   CLOUDY    39  29  67 S7        30.24F
IMPERIAL NEB     N/A     47  35  63 SW13      30.14F
MCCOOK NEB     CLOUDY    40  31  70 S10       30.20F
AKRON CO       SUNNY     56  34  43 W12       30.15F
BURLINGTON CO  MOSUNNY   53  34  48 SW16      30.17F
LIMON CO       SUNNY     58  31  35 N15       30.19F
$$

...UNOFFICIAL OBSERVATIONS...

CITY           SKY/WX    TMP DP  RH WIND       PRES   REMARKS
COLBY KS       MOSUNNY   45  37  76 S12       30.19F
GOVE KS          N/A     36  32  85 MISG        N/A
LENORA KS        N/A     36  32  85 MISG        N/A
NORTON KS      CLOUDY    37  27  65 S8        30.22F
SHARON SPRINGS   N/A     46  33  60 S12         N/A
KIT CARSON CO    N/A     47  34  60 MISG        N/A
YUMA CO          N/A     53  35  50 W9G17       N/A
$$



USA.gov is the U.S. government's official web portal to all federal, state and local government web resources and services.